Flag for Germany Weather past 2 weeks in Görlitz, Saxony, Germany

37 °F

Light rain. Overcast.

Feels Like: 31 °F
Forecast: 39 / 46 °F
Wind: 7 mph from Southwest

Location: Goerlitz

Current Time: Nov 29, 2015 at 12:42:03 PM

Latest Report: Nov 29, 2015 at 12:00 PM

Visibility: 8 mi

Pressure: 29.89 "Hg

Humidity: 90%

Dew point: 34 °F

Location of GörlitzLocation

Historic Weather in Görlitz — Graph


Görlitz temperature yesterday

Maximum temperature yesterday: 38 °F (at 7:00 PM)
Minimum temperature yesterday: 29 °F (at 3:00 AM)
Average temperature yesterday: 34 °F

Past Weeks' High & Low Weather Summary

High56 °F (Nov 18, 5:00 AM)97% (Nov 16, 4:00 AM)30.30 "Hg (Nov 16, 4:00 AM)
Low28 °F (Nov 24, 2:00 AM)56% (Nov 19, 2:00 PM)29.38 "Hg (Nov 21, 12:00 PM)
Average41 °F82%29.87 "Hg
* Reported Nov 14 11:00 AM — Nov 29 11:00 AM, Görlitz, Weather by CustomWeather, © 2015

Note: Actual official high and low records may vary slightly from our data, if they occured in-between our weather recording intervals... More about our weather records


Görlitz weather history for previous 24 hours

Time TempWeatherWind HumidityBarometerVisibility
11:00 AM
Sun, Nov 29
36 °FLight rain. Low clouds.7 mph89%29.90 "Hg6 mi
10:00 AM35 °FLight rain. Low clouds.7 mph90%29.90 "Hg6 mi
9:00 AM35 °FLight rain. Low clouds.8 mph89%29.91 "Hg6 mi
7:00 AM36 °FLight rain. Overcast.9 mph78%29.90 "Hg19 mi
5:00 AM35 °FPassing clouds.9 mph77%29.93 "Hg15 mi
4:00 AM35 °FPassing clouds.8 mph76%29.95 "Hg15 mi
3:00 AM35 °FOvercast.7 mph77%29.98 "Hg15 mi
2:00 AM35 °FPassing clouds.7 mph76%30.00 "Hg15 mi
10:00 PM
Sat, Nov 28
37 °FPassing clouds.8 mph80%29.99 "Hg17 mi
9:00 PM37 °FOvercast.7 mph84%29.98 "Hg17 mi
8:00 PM37 °FOvercast.7 mph86%29.96 "Hg17 mi
7:00 PM38 °FLight rain. Low clouds.7 mph89%29.93 "Hg6 mi
6:00 PM36 °FLight rain. Low clouds.7 mph93%29.91 "Hg6 mi
5:00 PM34 °FLight rain. Low clouds.6 mph93%29.88 "Hg4 mi
4:00 PM34 °FLight snow. Overcast.6 mph91%29.86 "Hg4 mi
3:00 PM34 °FLight snow. Overcast.7 mph84%29.83 "Hg5 mi
2:00 PM35 °FOvercast.7 mph75%29.81 "Hg11 mi
1:00 PM35 °FOvercast.8 mph74%29.80 "Hg12 mi
12:00 PM34 °FOvercast.7 mph74%29.81 "Hg12 mi
Weather by CustomWeather, © 2015

See weather overviewHow to use our weather pages